St. Marys, AK

5:06 AM AKST on November 18, 2019 (GMT -0900)
Saint Mary's

Weather History for PASM - September, 2019

Change the Weather History Date:

Thursday, September 26, 2019

  Actual Average Record
Temperature  
Mean Temperature 42 °F -  
Max Temperature 46 °F 41 °F 50 °F (2005)
Min Temperature 34 °F 31 °F 26 °F (2001)
Degree Days  
Heating Degree Days 23    
Moisture  
Dew Point 39 °F    
Average Humidity 90    
Maximum Humidity 100    
Minimum Humidity 82    
Precipitation  
Precipitation 0.01 in - - ()
Sea Level Pressure  
Sea Level Pressure 30.22 in    
Wind  
Wind Speed 9 mph ()    
Max Wind Speed 17 mph    
Max Gust Speed 29 mph    
Visibility 10.0 miles    
Events Rain    
Averages and records for this station are not official NWS values.
T = Trace of Precipitation, MM = Missing Value Source: Averaged Metar Reports

Daily Weather History Graph

Daily Weather History Graph

Search for Another Location

Airport or City:

Astronomy

Sep. 26, 2019 Rise Set
Actual Time 8:47 AM AKDT 8:40 PM AKDT
Civil Twilight 8:03 AM AKDT 9:24 PM AKDT
Nautical Twilight 7:09 AM AKDT 10:17 PM AKDT
Astronomical Twilight 6:12 AM AKDT 11:14 PM AKDT
Moon 4:57 AM AKDT (9/26) 8:55 PM AKDT (9/26)
Length of Visible Light 13h 21m
Length of Day
11h 52m
Waning Crescent, 6% of the Moon is Illuminated
Sep 26
Waning Crescent
Sep 28
New
Oct 5
First Quarter
Oct 13
Full
Oct 21
Last Quarter

Hourly Weather History & Observations

Time (AKDT) Temp. Windchill Dew Point Humidity Pressure Visibility Wind Dir Wind Speed Gust Speed Precip Events Conditions
12:02 AM 39.0 °F 36.8 °F 35.1 °F 86% 30.25 in 10.0 mi West 3.5 mph - N/A   Mostly Cloudy
1:02 AM 36.0 °F 33.3 °F 33.1 °F 89% 30.26 in 10.0 mi SSW 3.5 mph - N/A   Clear
2:02 AM 37.9 °F 33.5 °F 33.1 °F 83% 30.27 in 10.0 mi South 5.8 mph - N/A   Clear
3:02 AM 34.0 °F - 30.9 °F 89% 30.28 in 10.0 mi Calm Calm - N/A   Clear
4:02 AM 36.0 °F 32.1 °F 32.0 °F 86% 30.28 in 10.0 mi SSE 4.6 mph - N/A   Overcast
5:02 AM 36.0 °F 30.3 °F 30.9 °F 82% 30.28 in 10.0 mi SE 6.9 mph - N/A   Overcast
6:02 AM 36.0 °F 29.6 °F 30.9 °F 82% 30.28 in 10.0 mi ESE 8.1 mph - N/A   Mostly Cloudy
7:02 AM 34.0 °F 26.0 °F 30.9 °F 89% 30.28 in 10.0 mi ESE 10.4 mph - N/A   Overcast
8:02 AM 34.0 °F 25.5 °F 30.9 °F 89% 30.27 in 10.0 mi ESE 11.5 mph - N/A   Overcast
9:02 AM 34.0 °F 24.6 °F 32.0 °F 92% 30.24 in 10.0 mi ESE 13.8 mph - N/A   Overcast
9:15 AM 35.6 °F 27.1 °F 33.8 °F 93% 30.22 in 10.0 mi ESE 12.7 mph - 0.00 in   Overcast
10:02 AM 35.1 °F 26.9 °F 34.0 °F 96% 30.25 in 10.0 mi ESE 11.5 mph - 0.01 in Rain Light Rain
10:28 AM 35.6 °F 27.1 °F 35.6 °F 100% 30.21 in 10.0 mi ESE 12.7 mph - 0.00 in   Overcast
10:45 AM 35.6 °F 27.1 °F 35.6 °F 100% 30.21 in 10.0 mi ESE 12.7 mph - 0.00 in   Overcast
10:57 AM 35.6 °F 26.6 °F 35.6 °F 100% 30.21 in 10.0 mi ESE 13.8 mph - 0.00 in   Overcast
11:02 AM 36.0 °F 28.0 °F 36.0 °F 100% 30.25 in 10.0 mi ESE 11.5 mph - 0.00 in   Overcast
11:28 AM 37.4 °F 29.3 °F 35.6 °F 93% 30.21 in 10.0 mi ESE 12.7 mph - N/A   Overcast
12:02 PM 37.9 °F 30.0 °F 37.9 °F 100% 30.25 in 10.0 mi ESE 12.7 mph - N/A   Overcast
12:14 PM 37.4 °F 28.9 °F 37.4 °F 100% 30.22 in 10.0 mi ESE 13.8 mph - N/A   Overcast
1:02 PM 39.9 °F 32.1 °F 39.9 °F 100% 30.25 in 10.0 mi SE 13.8 mph 19.6 mph 0.00 in   Overcast
1:12 PM 41.0 °F 33.5 °F 39.2 °F 93% 30.22 in 10.0 mi SE 13.8 mph - N/A   Overcast
2:02 PM 43.0 °F 36.8 °F 43.0 °F 100% 30.25 in 10.0 mi SE 11.5 mph - N/A   Overcast
2:34 PM 46.4 °F 41.1 °F 44.6 °F 93% 30.22 in 10.0 mi SE 11.5 mph 18.4 mph N/A   Overcast
3:51 PM 48.2 °F - 46.4 °F 93% 30.21 in 10.0 mi SSE 11.5 mph 23.0 mph 0.00 in   Overcast
4:02 PM 48.9 °F - 46.0 °F 90% 30.23 in 10.0 mi SSE 13.8 mph 20.7 mph 0.00 in   Overcast
5:02 PM 50.0 °F - 46.0 °F 86% 30.22 in 10.0 mi SSE 13.8 mph 21.9 mph N/A   Overcast
6:02 PM 50.0 °F - 46.0 °F 86% 30.22 in 10.0 mi SSE 13.8 mph 19.6 mph N/A   Overcast
7:02 PM 50.0 °F - 45.0 °F 83% 30.22 in 10.0 mi SSE 11.5 mph 21.9 mph N/A   Overcast
7:53 PM 48.2 °F - 44.6 °F 87% 30.19 in 10.0 mi SSE 10.4 mph 18.4 mph N/A   Overcast
8:02 PM 48.9 °F - 44.1 °F 83% 30.22 in 10.0 mi SSE 12.7 mph 20.7 mph N/A   Overcast
9:02 PM 48.2 °F - 44.6 °F 87% 30.19 in 10.0 mi SSE 12.7 mph 21.9 mph N/A   Overcast
9:08 PM 48.0 °F - 44.1 °F 86% 30.21 in 10.0 mi SSE 13.8 mph 24.2 mph N/A   Overcast
9:37 PM 48.2 °F - 44.6 °F 87% 30.18 in 10.0 mi SE 11.5 mph 21.9 mph N/A   Overcast
10:02 PM 48.2 °F - 44.6 °F 87% 30.18 in 10.0 mi SSE 16.1 mph 23.0 mph N/A   Overcast
10:12 PM 48.2 °F - 44.6 °F 87% 30.18 in 10.0 mi SSE 16.1 mph 23.0 mph N/A   Overcast
10:20 PM 48.2 °F - 44.6 °F 87% 30.17 in 10.0 mi SSE 12.7 mph 23.0 mph N/A   Overcast
10:29 PM 48.2 °F - 44.6 °F 87% 30.17 in 10.0 mi SE 11.5 mph 24.2 mph N/A   Overcast
10:36 PM 48.2 °F - 44.6 °F 87% 30.17 in 10.0 mi SE 12.7 mph 21.9 mph N/A   Mostly Cloudy
10:46 PM 46.9 °F - 44.1 °F 90% 30.20 in 10.0 mi SSE 15.0 mph 24.2 mph N/A   Mostly Cloudy
11:23 PM 46.4 °F 39.8 °F 44.6 °F 93% 30.17 in 10.0 mi SSE 16.1 mph 24.2 mph N/A   Overcast
11:50 PM 48.2 °F - 42.8 °F 82% 30.17 in 10.0 mi SSE 17.3 mph 28.8 mph N/A   Overcast